Weather History for Cairns, QU

Change the Weather History Date:

Thursday, March 14, 2013

  Actual Average Record
Temperature  
Mean Temperature 80 °F -  
Max Temperature 86 °F 86 °F 89 °F (2001)
Min Temperature 73 °F 72 °F 71 °F (2002)
Cooling Degree Days 14    
Growing Degree Days 30 (Base 50)    
Moisture  
Dew Point 68 °F    
Average Humidity 67    
Maximum Humidity 83    
Minimum Humidity 46    
Precipitation  
Precipitation 0.00 in 0.45 in - ()
Sea Level Pressure  
Sea Level Pressure 29.70 in    
Wind  
Wind Speed 13 mph ()    
Max Wind Speed 20 mph    
Max Gust Speed 29 mph    
Visibility 7.6 miles    
Events      
Averages and records for this station are not official NWS values.
T = Trace of Precipitation, MM = Missing Value Source: Averaged Metar Reports

Daily Weather History Graph

Daily Weather History Graph

Search for Another Location

Airport:

Trip Planner

Search our weather history database for the weather conditions in past years. The results will help you decide how hot, cold, wet, or windy it might be!

Date:

Astronomy

Mar. 14, 2013 Rise Set
Actual Time 6:19 AM AEST 6:32 PM AEST
Civil Twilight 5:58 AM AEST 6:54 PM AEST
Nautical Twilight 5:32 AM AEST 7:19 PM AEST
Astronomical Twilight 5:07 AM AEST 7:44 PM AEST
Moon 8:08 AM AEST (3/14) 8:03 PM AEST (3/14)
Length of Visible Light 12h 56m
Length of Day
12h 12m
Waxing Crescent, 6% of the Moon is Illuminated
Mar 14
Waxing Crescent
Mar 20
First Quarter
Mar 27
Full
Apr 3
Last Quarter
Apr 10
New

Hourly Weather History & Observations

Time (AEST) Temp. Heat Index Dew Point Humidity Pressure Visibility Wind Dir Wind Speed Gust Speed Precip Events Conditions
12:00 AM 76 °F - 71 °F 81% 29.70 in - South 12.7 mph - -   Overcast
12:00 AM 77.0 °F - 71.6 °F 83% 29.68 in 6.2 mi South 12.7 mph - N/A   Mostly Cloudy
12:30 AM 77.0 °F - 71.6 °F 83% 29.68 in 6.2 mi SSE 13.8 mph - N/A   Mostly Cloudy
1:00 AM 77 °F - 69 °F 71% 29.69 in - South 15.0 mph - -  
1:00 AM 77.0 °F - 69.8 °F 78% 29.68 in 6.2 mi South 15.0 mph - N/A   Scattered Clouds
1:17 AM 77.0 °F - 69.8 °F 78% 29.65 in 6.2 mi South 17.3 mph 28.8 mph N/A   Scattered Clouds
1:30 AM 77.0 °F - 69.8 °F 78% 29.65 in 6.2 mi South 13.8 mph - N/A   Partly Cloudy
2:00 AM 77.0 °F - 71.6 °F 83% 29.65 in 6.2 mi South 12.7 mph - N/A   Mostly Cloudy
2:21 AM 77.0 °F - 69.8 °F 78% 29.62 in 6.2 mi South 17.3 mph 28.8 mph N/A   Scattered Clouds
2:30 AM 77.0 °F - 69.8 °F 78% 29.62 in 6.2 mi South 13.8 mph 28.8 mph N/A   Scattered Clouds
3:00 AM 76 °F - 70 °F 76% 29.64 in - South 12.7 mph - -  
3:00 AM 77.0 °F - 69.8 °F 78% 29.62 in 6.2 mi South 12.7 mph - N/A   Mostly Cloudy
3:30 AM 77.0 °F - 69.8 °F 78% 29.62 in 6.2 mi South 16.1 mph - N/A   Scattered Clouds
4:00 AM 77 °F - 70 °F 73% 29.66 in - South 16.1 mph - -  
4:00 AM 77.0 °F - 69.8 °F 78% 29.65 in 6.2 mi South 16.1 mph - N/A   Scattered Clouds
4:30 AM 77.0 °F - 69.8 °F 78% 29.65 in 6.2 mi South 13.8 mph - N/A   Partly Cloudy
5:00 AM 77.0 °F - 69.8 °F 78% 29.62 in 6.2 mi South 15.0 mph - N/A   Partly Cloudy
5:30 AM 77.0 °F - 68.0 °F 74% 29.65 in 6.2 mi South 17.3 mph - N/A   Mostly Cloudy
6:00 AM 77 °F - 69 °F 71% 29.67 in 19 mi South 18.4 mph - -   Partly Cloudy
6:00 AM 77.0 °F - 69.8 °F 78% 29.65 in 6.2 mi South 18.4 mph - N/A   Mostly Cloudy
6:30 AM 77.0 °F - 69.8 °F 78% 29.65 in 6.2 mi South 17.3 mph - N/A   Mostly Cloudy
7:00 AM 77 °F - 69 °F 71% 29.70 in - South 16.1 mph - -  
7:00 AM 77.0 °F - 69.8 °F 78% 29.68 in 6.2 mi South 16.1 mph - N/A   Mostly Cloudy
7:30 AM 77.0 °F - 69.8 °F 78% 29.68 in 6.2 mi South 15.0 mph - N/A   Mostly Cloudy
8:00 AM 78.8 °F - 69.8 °F 74% 29.68 in 6.2 mi South 15.0 mph - N/A   Mostly Cloudy
8:30 AM 78.8 °F - 69.8 °F 74% 29.71 in 6.2 mi South 15.0 mph - N/A   Mostly Cloudy
9:00 AM 80 °F - 70 °F 65% 29.73 in 19 mi South 17.3 mph - -   Partly Cloudy
9:00 AM 80.6 °F 83.9 °F 69.8 °F 70% 29.71 in 6.2 mi South 17.3 mph - N/A   Mostly Cloudy
9:30 AM 82.4 °F 87.2 °F 71.6 °F 70% 29.71 in 6.2 mi SSE 16.1 mph - N/A   Mostly Cloudy
10:00 AM 83 °F - 70 °F 56% 29.73 in - SSE 18.4 mph - -  
10:00 AM 82.4 °F 86.3 °F 69.8 °F 66% 29.71 in 6.2 mi SSE 18.4 mph - N/A   Mostly Cloudy
10:30 AM 84.2 °F 88.4 °F 69.8 °F 62% 29.71 in 6.2 mi SSE 19.6 mph - N/A   Mostly Cloudy
11:00 AM 84.2 °F 88.4 °F 69.8 °F 62% 29.71 in 6.2 mi South 17.3 mph - N/A   Mostly Cloudy
11:30 AM 84.2 °F 88.4 °F 69.8 °F 62% 29.71 in 6.2 mi SSE 19.6 mph - N/A   Mostly Cloudy
12:00 PM 82 °F - 69 °F 57% 29.72 in 19 mi South 17.3 mph - -   Partly Cloudy
12:00 PM 82.4 °F 86.3 °F 69.8 °F 66% 29.71 in 6.2 mi South 17.3 mph - N/A   Mostly Cloudy
12:30 PM 82.4 °F 85.4 °F 68.0 °F 62% 29.71 in 6.2 mi South 12.7 mph - N/A   Mostly Cloudy
1:00 PM 83 °F - 68 °F 53% 29.70 in - South 12.7 mph - -  
1:00 PM 82.4 °F 85.4 °F 68.0 °F 62% 29.68 in 6.2 mi South 12.7 mph - N/A   Mostly Cloudy
2:00 PM 84.2 °F 87.3 °F 68.0 °F 58% 29.65 in 6.2 mi SSE 12.7 mph - N/A   Mostly Cloudy
2:30 PM 84.2 °F 88.4 °F 69.8 °F 62% 29.65 in 6.2 mi South 11.5 mph - N/A   Mostly Cloudy
3:00 PM 84 °F - 69 °F 51% 29.67 in 19 mi South 9.2 mph - -   Partly Cloudy
3:00 PM 84.2 °F 87.3 °F 68.0 °F 58% 29.65 in 6.2 mi South 9.2 mph - N/A   Mostly Cloudy
3:30 PM 84.2 °F 87.3 °F 68.0 °F 58% 29.65 in 6.2 mi SE 15.0 mph - N/A   Mostly Cloudy
4:00 PM 85 °F - 69 °F 49% 29.68 in - SE 13.8 mph - -  
4:00 PM 86.0 °F 89.4 °F 68.0 °F 55% 29.68 in 6.2 mi SE 13.8 mph - N/A   Mostly Cloudy
4:30 PM 82.4 °F 85.4 °F 68.0 °F 62% 29.68 in 6.2 mi SE 17.3 mph - N/A   Mostly Cloudy
5:00 PM 82.4 °F 86.3 °F 69.8 °F 66% 29.68 in 6.2 mi SE 15.0 mph - N/A   Mostly Cloudy
5:30 PM 82.4 °F 83.9 °F 64.4 °F 54% 29.68 in 6.2 mi South 9.2 mph - N/A   Mostly Cloudy
6:00 PM 82 °F - 65 °F 46% 29.71 in 19 mi South 11.5 mph - -   Partly Cloudy
6:00 PM 82.4 °F 83.9 °F 64.4 °F 54% 29.71 in 6.2 mi South 11.5 mph - N/A   Mostly Cloudy
6:30 PM 80.6 °F 81.8 °F 62.6 °F 54% 29.71 in 6.2 mi South 11.5 mph - N/A   Mostly Cloudy
7:00 PM 79 °F - 65 °F 53% 29.74 in - South 12.7 mph - -  
7:00 PM 78.8 °F - 64.4 °F 61% 29.71 in 6.2 mi South 12.7 mph - N/A   Mostly Cloudy
7:30 PM 78.8 °F - 62.6 °F 57% 29.74 in 6.2 mi South 8.1 mph - N/A   Mostly Cloudy
8:00 PM 78.8 °F - 64.4 °F 61% 29.77 in 6.2 mi South 6.9 mph - N/A   Mostly Cloudy
8:30 PM 77.0 °F - 64.4 °F 65% 29.77 in 6.2 mi South 8.1 mph - N/A   Scattered Clouds
9:00 PM 78 °F - 64 °F 53% 29.80 in 19 mi South 8.1 mph - -   Partly Cloudy
9:00 PM 78.8 °F - 64.4 °F 61% 29.80 in 6.2 mi South 8.1 mph - N/A   Partly Cloudy
9:30 PM 78.8 °F - 64.4 °F 61% 29.80 in 6.2 mi South 6.9 mph - N/A   Partly Cloudy
10:00 PM 76 °F - 66 °F 64% 29.83 in - SSE 6.9 mph - -  
10:00 PM 77.0 °F - 66.2 °F 69% 29.80 in 6.2 mi SSE 6.9 mph - N/A   Partly Cloudy
10:30 PM 77.0 °F - 66.2 °F 69% 29.83 in 6.2 mi South 5.8 mph - N/A   Partly Cloudy
11:00 PM 77.0 °F - 64.4 °F 65% 29.83 in 6.2 mi South 9.2 mph - N/A   Partly Cloudy
11:30 PM 77.0 °F - 62.6 °F 61% 29.80 in 6.2 mi SSW 8.1 mph - N/A   Partly Cloudy